< < Back
Terminal Aerodrome Forecast


Current Version              Previous Versions:   1  2  3  4  5  6  7  8  9  

Terminal Aerodrome Forecast

359
FTUS42 KILM 292325
TAFILM
TAF
KILM 292325Z 3000/3024 21003KT P6SM SCT250
     FM301200 20006KT P6SM BKN050
     FM301400 23012G22KT P6SM VCSH SCT025 OVC040
      TEMPO 3017/3020 4SM -RA SCT015 BKN025
     FM302100 27012G20KT P6SM SCT020 SCT050=

Latest METAR

431
SAUS70 KWBC 300200 RRF
MTRILM
METAR KILM 300153Z 16003KT 10SM CLR 05/M01 A3033 RMK AO2 SLP270
T00501011


USA.gov is the U.S. government's official web portal to all federal, state and local government web resources and services.